When you browse on this site, cookies collect data to enhance your experience and personalize the content and advertising you see.
Visit our Privacy Policy to learn more. By continuing to use the site, you agree to this use of cookies and data.
  • En España
  • Lista de países
  • Para 7 días
  • Temperatura del agua
  • Mapa Satelital
  • El tiempo en el mapa
  • Informadores
  • user-avatar
    Iniciar sesión

    Tiempo cada hora Onvervaht

    Hoy, 22 Abril, Lunes

    Tiempo Temperatura Precipitaciones Viento Presión Humedad
    00:00 +23°C° 0 mm 0 mps 757 mmHg 92%
    01:00 +23°C° 0 mm 0 mps 757 mmHg 93%
    02:00 +23°C° 0 mm 0 mps 757 mmHg 94%
    03:00 +22°C° 0 mm 0 mps 757 mmHg 95%
    04:00 +22°C° 0 mm 0 mps 757 mmHg 96%
    05:00 +22°C° 0 mm 0 mps 757 mmHg 97%
    06:00 +24°C° 0 mm 0 mps 757 mmHg 87%
    07:00 +28°C° 0 mm 1 mps 757 mmHg 78%
    08:00 +30°C° 0 mm 1 mps 758 mmHg 69%
    09:00 +31°C° 0 mm 1 mps 758 mmHg 64%
    10:00 +32°C° 0 mm 1 mps 758 mmHg 59%
    11:00 +34°C° 0 mm 1 mps 758 mmHg 54%
    12:00 +34°C° 0.1 mm 1 mps 757 mmHg 55%
    13:00 +35°C° 0.1 mm 2 mps 756 mmHg 56%
    14:00 +35°C° 0.1 mm 2 mps 756 mmHg 56%
    15:00 +32°C° 0.3 mm 2 mps 755 mmHg 64%
    16:00 +31°C° 0.3 mm 2 mps 755 mmHg 72%
    17:00 +29°C° 0.3 mm 2 mps 755 mmHg 80%
    18:00 +28°C° 0 mm 2 mps 755 mmHg 84%
    19:00 +27°C° 0 mm 1 mps 756 mmHg 87%
    20:00 +26°C° 0 mm 1 mps 757 mmHg 91%
    21:00 +26°C° 0 mm 1 mps 757 mmHg 92%
    22:00 +26°C° 0 mm 1 mps 757 mmHg 94%
    23:00 +26°C° 0 mm 1 mps 757 mmHg 95%

    Mañana, 23 Abril, Martes

    Tiempo Temperatura Precipitaciones Viento Presión Humedad
    00:00 +23°C° 0 mm 0 mps 757 mmHg 96%
    01:00 +23°C° 0 mm 0 mps 756 mmHg 97%
    02:00 +23°C° 0 mm 0 mps 756 mmHg 97%
    03:00 +23°C° 0 mm 0 mps 756 mmHg 98%
    04:00 +23°C° 0 mm 0 mps 756 mmHg 98%
    05:00 +23°C° 0 mm 0 mps 756 mmHg 98%
    06:00 +24°C° 0 mm 0 mps 757 mmHg 90%
    07:00 +28°C° 0 mm 1 mps 757 mmHg 83%
    08:00 +30°C° 0 mm 1 mps 758 mmHg 75%
    09:00 +30°C° 1.1 mm 1 mps 758 mmHg 76%
    10:00 +31°C° 1.1 mm 1 mps 758 mmHg 77%
    11:00 +31°C° 1.1 mm 1 mps 758 mmHg 78%
    12:00 +31°C° 2.1 mm 1 mps 757 mmHg 80%
    13:00 +30°C° 2.1 mm 1 mps 756 mmHg 82%
    14:00 +30°C° 2.1 mm 1 mps 755 mmHg 85%
    15:00 +29°C° 1.9 mm 1 mps 755 mmHg 88%
    16:00 +28°C° 1.9 mm 1 mps 755 mmHg 91%
    17:00 +28°C° 1.9 mm 1 mps 755 mmHg 94%
    18:00 +27°C° 1.8 mm 1 mps 755 mmHg 95%
    19:00 +27°C° 1.8 mm 1 mps 756 mmHg 96%
    20:00 +26°C° 1.8 mm 1 mps 756 mmHg 97%
    21:00 +26°C° 2.4 mm 1 mps 757 mmHg 98%
    22:00 +26°C° 2.4 mm 1 mps 757 mmHg 98%
    23:00 +24°C° 2.4 mm 0 mps 757 mmHg 99%

    Pasado mañana, 24 Abril, Miércoles

    Tiempo Temperatura Precipitaciones Viento Presión Humedad
    00:00 +24°C° 2 mm 0 mps 757 mmHg 99%
    01:00 +24°C° 2 mm 0 mps 756 mmHg 99%
    02:00 +24°C° 2 mm 0 mps 756 mmHg 99%
    03:00 +24°C° 0.6 mm 0 mps 756 mmHg 99%
    04:00 +24°C° 0.6 mm 0 mps 756 mmHg 99%
    05:00 +24°C° 0.6 mm 0 mps 756 mmHg 99%
    06:00 +24°C° 0.5 mm 0 mps 757 mmHg 97%
    07:00 +25°C° 0.5 mm 0 mps 757 mmHg 95%
    08:00 +28°C° 0.5 mm 1 mps 758 mmHg 93%
    09:00 +29°C° 0.7 mm 1 mps 758 mmHg 90%
    10:00 +30°C° 0.7 mm 1 mps 758 mmHg 86%
    11:00 +31°C° 0.7 mm 1 mps 758 mmHg 82%
    12:00 +30°C° 1.8 mm 1 mps 758 mmHg 84%
    13:00 +30°C° 1.8 mm 1 mps 757 mmHg 87%
    14:00 +30°C° 1.8 mm 1 mps 756 mmHg 89%
    15:00 +29°C° 1.4 mm 1 mps 756 mmHg 91%
    16:00 +28°C° 1.4 mm 1 mps 756 mmHg 93%
    17:00 +28°C° 1.4 mm 1 mps 756 mmHg 95%
    18:00 +27°C° 1 mm 1 mps 757 mmHg 96%
    19:00 +27°C° 1 mm 1 mps 757 mmHg 97%
    20:00 +26°C° 1 mm 1 mps 758 mmHg 98%
    21:00 +26°C° 0.5 mm 1 mps 758 mmHg 98%
    22:00 +26°C° 0.5 mm 1 mps 758 mmHg 98%
    23:00 +26°C° 0.5 mm 1 mps 758 mmHg 98%

    25 Abril, Jueves

    Tiempo Temperatura Precipitaciones Viento Presión Humedad
    00:00 +26°C° 0.2 mm 1 mps 758 mmHg 98%
    01:00 +26°C° 0.2 mm 1 mps 757 mmHg 98%
    02:00 +26°C° 0.2 mm 1 mps 757 mmHg 98%
    03:00 +25°C° 0 mm 1 mps 757 mmHg 98%
    04:00 +23°C° 0 mm 0 mps 757 mmHg 98%
    05:00 +23°C° 0 mm 0 mps 757 mmHg 98%
    06:00 +26°C° 0.2 mm 1 mps 758 mmHg 95%
    07:00 +27°C° 0.2 mm 1 mps 758 mmHg 92%
    08:00 +28°C° 0.2 mm 1 mps 759 mmHg 90%
    09:00 +29°C° 0.8 mm 2 mps 759 mmHg 89%
    10:00 +29°C° 0.8 mm 2 mps 759 mmHg 88%
    11:00 +30°C° 0.8 mm 2 mps 759 mmHg 87%
    12:00 +30°C° 0.8 mm 2 mps 758 mmHg 87%
    13:00 +30°C° 0.8 mm 2 mps 757 mmHg 87%
    14:00 +30°C° 0.8 mm 2 mps 756 mmHg 87%
    15:00 +29°C° 0.5 mm 2 mps 756 mmHg 89%
    16:00 +29°C° 0.5 mm 1 mps 756 mmHg 90%
    17:00 +28°C° 0.5 mm 1 mps 756 mmHg 92%
    18:00 +27°C° 0.1 mm 1 mps 757 mmHg 94%
    19:00 +27°C° 0.1 mm 1 mps 757 mmHg 95%
    20:00 +26°C° 0.1 mm 1 mps 758 mmHg 97%
    21:00 +26°C° 0 mm 1 mps 758 mmHg 97%
    22:00 +25°C° 0 mm 1 mps 759 mmHg 97%
    23:00 +25°C° 0 mm 1 mps 759 mmHg 97%

    26 Abril, Viernes

    Tiempo Temperatura Precipitaciones Viento Presión Humedad
    00:00 +25°C° 0 mm 1 mps 759 mmHg 97%
    01:00 +25°C° 0 mm 1 mps 758 mmHg 97%
    02:00 +25°C° 0 mm 1 mps 758 mmHg 97%
    03:00 +25°C° 0 mm 1 mps 758 mmHg 97%
    04:00 +25°C° 0 mm 1 mps 758 mmHg 97%
    05:00 +25°C° 0 mm 1 mps 758 mmHg 97%
    06:00 +26°C° 0 mm 1 mps 759 mmHg 92%
    07:00 +27°C° 0 mm 2 mps 759 mmHg 87%
    08:00 +29°C° 0 mm 2 mps 760 mmHg 82%
    09:00 +30°C° 0 mm 2 mps 759 mmHg 72%
    10:00 +32°C° 0 mm 2 mps 759 mmHg 63%
    11:00 +35°C° 0 mm 2 mps 759 mmHg 53%
    12:00 +35°C° 0 mm 2 mps 758 mmHg 51%
    13:00 +35°C° 0 mm 2 mps 757 mmHg 50%
    14:00 +36°C° 0 mm 2 mps 757 mmHg 49%
    15:00 +34°C° 0 mm 2 mps 757 mmHg 55%
    16:00 +32°C° 0 mm 2 mps 757 mmHg 61%
    17:00 +30°C° 0 mm 2 mps 757 mmHg 67%
    18:00 +29°C° 0 mm 2 mps 757 mmHg 72%
    19:00 +28°C° 0 mm 2 mps 758 mmHg 76%
    20:00 +26°C° 0 mm 2 mps 758 mmHg 81%
    21:00 +26°C° 0 mm 1 mps 758 mmHg 83%
    22:00 +26°C° 0 mm 1 mps 758 mmHg 85%
    23:00 +25°C° 0 mm 1 mps 759 mmHg 87%

    27 Abril, Sábado

    Tiempo Temperatura Precipitaciones Viento Presión Humedad
    00:00 +25°C° 0 mm 1 mps 758 mmHg 89%
    01:00 +25°C° 0 mm 1 mps 757 mmHg 90%
    02:00 +25°C° 0 mm 1 mps 757 mmHg 92%
    03:00 +24°C° 0 mm 1 mps 757 mmHg 93%
    04:00 +24°C° 0 mm 1 mps 757 mmHg 94%
    05:00 +22°C° 0 mm 0 mps 758 mmHg 95%
    06:00 +26°C° 0 mm 1 mps 758 mmHg 86%
    07:00 +28°C° 0 mm 1 mps 759 mmHg 77%
    08:00 +30°C° 0 mm 2 mps 759 mmHg 69%
    09:00 +31°C° 0 mm 2 mps 759 mmHg 64%
    10:00 +32°C° 0 mm 2 mps 759 mmHg 58%
    11:00 +34°C° 0 mm 2 mps 758 mmHg 53%
    12:00 +34°C° 0 mm 2 mps 758 mmHg 54%
    13:00 +34°C° 0 mm 2 mps 757 mmHg 54%
    14:00 +33°C° 0 mm 1 mps 756 mmHg 54%
    15:00 +32°C° 0 mm 2 mps 756 mmHg 57%
    16:00 +32°C° 0 mm 2 mps 756 mmHg 61%
    17:00 +31°C° 0 mm 2 mps 756 mmHg 64%
    18:00 +30°C° 0 mm 2 mps 756 mmHg 70%
    19:00 +28°C° 0 mm 2 mps 757 mmHg 77%
    20:00 +27°C° 0 mm 1 mps 757 mmHg 83%
    21:00 +26°C° 0 mm 1 mps 758 mmHg 86%
    22:00 +26°C° 0 mm 1 mps 758 mmHg 89%
    23:00 +25°C° 0 mm 1 mps 758 mmHg 92%
    Mostrar más